4XCTF LLBS-LLMZ

Flight info

Callsign 4XCTF
Flight time 0h 31m
Altitude 4000
Route LLBS NCITY OMMER SOKET MYTAR TARAD ARRAD LLMZ
Aircraft C172/L-SDE/C

Departure

Time 2026-05-06 18:31
Airport Beersheba (Teyman) Airport (LLBS)

Arrival

Time 2026-05-06 19:02
Airport Bar Yehuda Airfield (LLMZ)
Time Latitude Longitude Altitude Speed Heading
2026-05-06 18:16 31.28479 34.72613 657 ft 0 kts 47°
2026-05-06 18:25 31.28477 34.72623 655 ft 0 kts 138°
2026-05-06 18:26 31.28474 34.72624 654 ft 0 kts 176°
2026-05-06 18:27 31.28471 34.72625 654 ft 0 kts 171°
2026-05-06 18:27 31.28467 34.72625 660 ft 1 kts 187°
2026-05-06 18:28 31.28461 34.72622 658 ft 5 kts 204°
2026-05-06 18:28 31.28423 34.72641 658 ft 9 kts 133°
2026-05-06 18:28 31.28367 34.72702 660 ft 13 kts 138°
2026-05-06 18:28 31.28327 34.72734 660 ft 1 kts 200°
2026-05-06 18:30 31.28308 34.72710 659 ft 10 kts 255°
2026-05-06 18:30 31.28324 34.72677 660 ft 0 kts 319°
2026-05-06 18:30 31.28458 34.72531 657 ft 55 kts 318°
2026-05-06 18:30 31.28802 34.72149 789 ft 73 kts 308°
2026-05-06 18:31 31.29098 34.71704 1058 ft 70 kts 304°
2026-05-06 18:31 31.29560 34.71451 1304 ft 81 kts
2026-05-06 18:31 31.30140 34.71510 1504 ft 90 kts 24°
2026-05-06 18:31 31.30686 34.71852 1660 ft 87 kts 27°
2026-05-06 18:32 31.31100 34.72349 1883 ft 91 kts 60°
2026-05-06 18:32 31.31391 34.73040 2073 ft 96 kts 74°
2026-05-06 18:32 31.31381 34.73796 2394 ft 87 kts 114°
2026-05-06 18:32 31.31031 34.74443 2473 ft 102 kts 136°
2026-05-06 18:33 31.30624 34.75154 2649 ft 106 kts 119°
2026-05-06 18:33 31.30328 34.75940 2688 ft 109 kts 103°
2026-05-06 18:33 31.30181 34.76802 2676 ft 110 kts 104°
2026-05-06 18:33 31.29988 34.77635 2665 ft 103 kts 108°
2026-05-06 18:34 31.29753 34.78474 2511 ft 110 kts 112°
2026-05-06 18:34 31.29496 34.79318 2498 ft 106 kts 113°
2026-05-06 18:34 31.29239 34.80127 2508 ft 110 kts 111°
2026-05-06 18:34 31.28995 34.80989 2704 ft 113 kts 114°
2026-05-06 18:35 31.28712 34.81835 2959 ft 108 kts 115°
2026-05-06 18:35 31.28437 34.82662 3063 ft 109 kts 113°
2026-05-06 18:35 31.28112 34.83519 2907 ft 118 kts 114°
2026-05-06 18:35 31.28066 34.84450 2919 ft 115 kts 74°
2026-05-06 18:36 31.28348 34.85253 3254 ft 100 kts 64°
2026-05-06 18:36 31.28658 34.85949 3475 ft 95 kts 60°
2026-05-06 18:36 31.28980 34.86684 3426 ft 104 kts 66°
2026-05-06 18:36 31.29268 34.87434 3523 ft 103 kts 61°
2026-05-06 18:37 31.29635 34.88175 3513 ft 105 kts 55°
2026-05-06 18:37 31.29907 34.88645 3533 ft 106 kts 51°
2026-05-06 18:37 31.30496 34.89550 3583 ft 105 kts 51°
2026-05-06 18:37 31.30806 34.90006 3585 ft 107 kts 49°
2026-05-06 18:38 31.31330 34.90978 3631 ft 105 kts 57°
2026-05-06 18:38 31.31693 34.91738 3553 ft 109 kts 62°
2026-05-06 18:38 31.31901 34.92598 3533 ft 109 kts 79°
2026-05-06 18:38 31.31934 34.93184 3493 ft 110 kts 89°
2026-05-06 18:39 31.31942 34.94087 3478 ft 108 kts 90°
2026-05-06 18:39 31.31901 34.94950 3453 ft 111 kts 101°
2026-05-06 18:39 31.31716 34.95828 3409 ft 108 kts 108°
2026-05-06 18:40 31.31292 34.97490 3473 ft 105 kts 108°
2026-05-06 18:40 31.31104 34.98315 3503 ft 107 kts 108°
2026-05-06 18:40 31.30893 34.99161 3556 ft 108 kts 107°
2026-05-06 18:40 31.30683 34.99987 3544 ft 108 kts 108°
2026-05-06 18:41 31.30451 35.00823 3501 ft 108 kts 109°
2026-05-06 18:41 31.30201 35.01683 3406 ft 112 kts 112°
2026-05-06 18:41 31.29905 35.02484 3386 ft 107 kts 116°
2026-05-06 18:41 31.29575 35.03262 3361 ft 109 kts 122°
2026-05-06 18:42 31.29225 35.04033 3387 ft 108 kts 117°
2026-05-06 18:42 31.29022 35.04891 3384 ft 110 kts 102°
2026-05-06 18:42 31.28882 35.05767 3351 ft 113 kts 100°
2026-05-06 18:42 31.28737 35.06685 3314 ft 115 kts 100°
2026-05-06 18:43 31.28638 35.07598 3411 ft 109 kts 97°
2026-05-06 18:43 31.28585 35.08482 3459 ft 113 kts 91°
2026-05-06 18:43 31.28575 35.09391 3508 ft 115 kts 95°
2026-05-06 18:43 31.28549 35.10307 3589 ft 109 kts 90°
2026-05-06 18:44 31.28523 35.11217 3531 ft 114 kts 92°
2026-05-06 18:44 31.28469 35.12112 3470 ft 110 kts 96°
2026-05-06 18:44 31.28357 35.12994 3431 ft 109 kts 103°
2026-05-06 18:44 31.28154 35.13839 3383 ft 107 kts 110°
2026-05-06 18:45 31.27889 35.14668 3385 ft 110 kts 114°
2026-05-06 18:45 31.27575 35.15500 3448 ft 112 kts 116°
2026-05-06 18:45 31.27255 35.16325 3537 ft 112 kts 115°
2026-05-06 18:45 31.26962 35.17161 3573 ft 110 kts 113°
2026-05-06 18:46 31.26668 35.17980 3591 ft 109 kts 112°
2026-05-06 18:46 31.26387 35.18817 3568 ft 112 kts 113°
2026-05-06 18:46 31.26105 35.19657 3577 ft 107 kts 114°
2026-05-06 18:46 31.25818 35.20429 3577 ft 104 kts 118°
2026-05-06 18:47 31.25487 35.21186 3536 ft 107 kts 123°
2026-05-06 18:47 31.25304 35.22031 3595 ft 111 kts 74°
2026-05-06 18:47 31.25477 35.22849 3892 ft 102 kts 81°
2026-05-06 18:47 31.25588 35.23681 3950 ft 103 kts 78°
2026-05-06 18:48 31.25730 35.24520 3993 ft 106 kts 77°
2026-05-06 18:48 31.25895 35.25363 3998 ft 111 kts 76°
2026-05-06 18:48 31.26087 35.26223 4032 ft 109 kts 74°
2026-05-06 18:48 31.26352 35.27034 4019 ft 107 kts 65°
2026-05-06 18:49 31.26677 35.27819 3976 ft 109 kts 62°
2026-05-06 18:49 31.27029 35.28590 3965 ft 107 kts 61°
2026-05-06 18:49 31.27396 35.29365 3905 ft 109 kts 60°
2026-05-06 18:49 31.27757 35.30144 3766 ft 111 kts 66°
2026-05-06 18:50 31.28044 35.30982 3568 ft 111 kts 69°
2026-05-06 18:50 31.28299 35.31829 3365 ft 112 kts 71°
2026-05-06 18:50 31.28557 35.32684 3144 ft 112 kts 69°
2026-05-06 18:50 31.28821 35.33510 2892 ft 104 kts 71°
2026-05-06 18:51 31.29043 35.34258 2600 ft 97 kts 72°
2026-05-06 18:51 31.29250 35.35006 2266 ft 96 kts 73°
2026-05-06 18:51 31.29451 35.35753 1922 ft 95 kts 73°
2026-05-06 18:51 31.29708 35.36458 1588 ft 94 kts 62°
2026-05-06 18:52 31.30038 35.37146 1176 ft 99 kts 61°
2026-05-06 18:52 31.30357 35.37848 810 ft 97 kts 64°
2026-05-06 18:52 31.30643 35.38531 536 ft 90 kts 65°
2026-05-06 18:52 31.30904 35.39210 328 ft 91 kts 70°
2026-05-06 18:53 31.31101 35.39887 217 ft 86 kts 87°
2026-05-06 18:53 31.30752 35.40255 218 ft 89 kts 192°
2026-05-06 18:53 31.30271 35.39737 91 ft 104 kts 243°
2026-05-06 18:53 31.30327 35.38965 67 ft 101 kts 309°
2026-05-06 18:54 31.30902 35.38503 102 ft 98 kts 348°
2026-05-06 18:54 31.31579 35.38450 146 ft 99 kts
2026-05-06 18:54 31.32224 35.38417 367 ft 78 kts 345°
2026-05-06 18:54 31.32799 35.38287 291 ft 89 kts 358°
2026-05-06 18:55 31.33429 35.38283 145 ft 92 kts
2026-05-06 18:55 31.34049 35.38391 -81 ft 89 kts 21°
2026-05-06 18:55 31.34565 35.38825 -295 ft 93 kts 59°
2026-05-06 18:55 31.34803 35.39484 -417 ft 87 kts 89°
2026-05-06 18:56 31.34611 35.40124 -458 ft 86 kts 140°
2026-05-06 18:56 31.34048 35.40349 -469 ft 90 kts 179°
2026-05-06 18:56 31.33412 35.40286 -447 ft 91 kts 187°
2026-05-06 18:56 31.32782 35.40224 -414 ft 89 kts 181°
2026-05-06 18:57 31.32188 35.40169 -453 ft 86 kts 186°
2026-05-06 18:57 31.31604 35.40064 -589 ft 86 kts 197°
2026-05-06 18:57 31.31144 35.39630 -694 ft 86 kts 231°
2026-05-06 18:57 31.31031 35.38993 -797 ft 85 kts 292°
2026-05-06 18:58 31.31391 35.38490 -829 ft 69 kts 351°
2026-05-06 18:58 31.31973 35.38565 -824 ft 101 kts 19°
2026-05-06 18:58 31.32686 35.38711 -733 ft 102 kts
2026-05-06 18:58 31.33405 35.38771 -636 ft 110 kts
2026-05-06 18:59 31.34149 35.38898 -490 ft 102 kts 36°
2026-05-06 18:59 31.34522 35.39529 -428 ft 94 kts 83°
2026-05-06 18:59 31.34380 35.40255 -375 ft 89 kts 134°
2026-05-06 18:59 31.33828 35.40560 -397 ft 92 kts 173°
2026-05-06 19:00 31.33158 35.40556 -488 ft 97 kts 184°
2026-05-06 19:00 31.32524 35.40402 -532 ft 96 kts 195°
2026-05-06 19:00 31.31906 35.40150 -594 ft 87 kts 202°
2026-05-06 19:00 31.31368 35.39901 -637 ft 80 kts 201°
2026-05-06 19:01 31.30858 35.39662 -726 ft 79 kts 194°
2026-05-06 19:01 31.30427 35.39337 -784 ft 77 kts 238°
2026-05-06 19:01 31.30391 35.38735 -892 ft 77 kts 299°
2026-05-06 19:01 31.30821 35.38436 -995 ft 75 kts
2026-05-06 19:02 31.31301 35.38528 -1039 ft 66 kts 18°
2026-05-06 19:02 31.31747 35.38641 -1130 ft 66 kts 16°
2026-05-06 19:02 31.32201 35.38734 -1213 ft 65 kts 14°
2026-05-06 19:02 31.32606 35.38825 -1238 ft 46 kts 18°
2026-05-06 19:03 31.32876 35.38867 -1232 ft 24 kts
2026-05-06 19:03 31.32924 35.38838 -1231 ft 11 kts 288°
2026-05-06 19:03 31.32929 35.38817 -1235 ft 0 kts 278°
2026-05-06 19:12 31.32948 35.38821 -1233 ft 0 kts 96°